Location: G�nzburg
(48.4565°N, 10.3217°E)
Time: 06:36:04
(UTC+01:00)

ISS - Pass Details

Date: 16 November 2017
Orbit: 402 x 407 km, 51.6° (Epoch: 24 November)

Event Time Altitude Azimuth Distance (km) Brightness Sun altitude
Exits shadow 05:38:07 31° 207° (SSW) 736 -2.7 -18.1°
Drops below altitude 10° 05:40:50 10° 151° (SSE) 1,449 -0.5 -17.6°
Sets 05:43:02 0° 141° (SE) 2,305 0.8 -17.3°
